This demonstration page uses our WeatherBlox Daily Observations layout. Learn more.

Left ArrowRight Arrow

40.92501, -98.34201

Hourly Observations for May 22, 2020

Temp ( °F °C ) Dew Point ( °F °C ) Humidity (%) Winds ( mph kmh ) Pressure ( in mb ) Visibility ( mi km ) Precip ( " mm )
12:10 am 00:10 Cloudy with Rain 62 16.7 59 15 90 90 ESE 12 19 29.90 1013 3 5 0.23 5.84
12:50 am 00:50 Cloudy with Nearby Thunderstorms 63 17 57 14 83 83 E 12 19 29.89 1012 3 4 0.40 10.16
12:53 am 00:53 Cloudy with Nearby Thunderstorms 62 16.7 57 13.9 84 84 ESE 12 19 29.92 1013 3 5 0.43 10.92
1:10 am 01:10 Cloudy with Light Rain 62 16.7 58 14.4 86 86 SE 13 20 29.88 1012 6 10 0.06 1.52
1:53 am 01:53 Cloudy with Light Rain 62 16.7 58 14.4 86 86 ESE 15 24 29.89 1012 10 16 0.07 1.78
2:53 am 02:53 Cloudy with Light Rain 62 16.7 59 15 90 90 SSE 10 17 29.89 1012 7 11 0.07 1.78
3:53 am 03:53 Cloudy with Light Rain 62 16.7 59 15 90 90 SE 10 17 29.86 1011 7 11 0.01 0.25
4:24 am 04:24 Cloudy with Rain 62 16.7 59 15 90 90 SE 8 13 29.82 1010 3 4 0.10 2.54
4:31 am 04:31 Cloudy with Light Rain 62 16.7 59 15 90 90 SE 10 17 29.81 1010 5 8 0.11 2.79
4:53 am 04:53 Cloudy with Light Rain 62 16.7 59 15 90 90 S 10 17 29.84 1010 4 6 0.14 3.56
5:16 am 05:16 Cloudy with Light Rain 61 16.1 59 15 93 93 SSW 9 15 29.81 1009 4 6 0.02 0.51
5:41 am 05:41 Cloudy with Mist and Fog 61 16.1 59 15 93 93 SSW 7 11 29.82 1010 4 6 0.02 0.51
5:53 am 05:53 Cloudy with Mist and Fog 61 16.1 59 15 93 93 SSE 6 9 29.85 1011 3 5 0.02 0.51
6:17 am 06:17 Cloudy with Mist and Fog 61 16.1 59 15 93 93 ESE 6 9 29.83 1010 2 3 0.00 0.00
6:32 am 06:32 Cloudy with Mist and Fog 61 16.1 59 15 93 93 ESE 6 9 29.84 1010 2 2 0.00 0.00
6:53 am 06:53 Cloudy with Light Rain 61 16.1 59 15 93 93 E 7 11 29.87 1012 1 2 0.00 0.00
7:53 am 07:53 Cloudy with Light Rain 61 16.1 58 14.4 90 90 NE 7 11 29.88 1012 3 4 0.00 0.00
8:00 am 08:00 Cloudy with Mist and Fog 61 16.1 58 14.4 90 90 NNE 7 11 29.86 1011 4 6 0.00 0.00
8:53 am 08:53 Cloudy with Mist and Fog 61 16.1 58 14.4 90 90 ENE 9 15 29.86 1011 3 5 0.00 0.00
9:05 am 09:05 Cloudy with Mist and Fog 61 16.1 58 14.4 90 90 ENE 9 15 29.84 1010 1 2 0.00 0.00
9:11 am 09:11 Cloudy with Light Rain 60 15.6 58 14.4 93 93 ENE 8 13 29.85 1011 0 0 0.00 0.00
9:29 am 09:29 Cloudy with Nearby Thunderstorms 60 15.6 59 15 96 96 ENE 7 11 29.85 1011 0 0 0.00 0.00
9:37 am 09:37 Cloudy with Nearby Thunderstorms 60 15.6 59 15 96 96 ENE 6 9 29.85 1011 1 1 0.01 0.25
9:44 am 09:44 Cloudy with Nearby Thunderstorms 61 16.1 59 15 93 93 E 7 11 29.85 1011 1 2 0.04 1.02
9:53 am 09:53 Cloudy with Rain 61 16.1 59 15 93 93 E 7 11 29.88 1012 1 2 0.06 1.52
10:04 am 10:04 Cloudy with Thunderstorms 61 16.1 59 15 93 93 E 8 13 29.86 1011 1 2 0.03 0.76
10:19 am 10:19 Cloudy with Nearby Thunderstorms 61 16.1 59 15 93 93 E 7 11 29.86 1011 1 2 0.09 2.29
10:27 am 10:27 Cloudy with Nearby Thunderstorms 61 16.1 59 15 93 93 ENE 6 9 29.85 1011 1 1 0.15 3.81
10:37 am 10:37 Cloudy with Heavy Rain 61 16.1 59 15 93 93 NE 7 11 29.86 1011 1 2 0.20 5.08
10:49 am 10:49 Cloudy with Rain 61 16 59 15 94 94 ENE 8 13 29.86 1011 1 2 0.27 6.86
10:53 am 10:53 Cloudy with Rain 61 16.1 59 15 93 93 NE 8 13 29.88 1012 2 2 0.29 7.37
11:03 am 11:03 Cloudy with Rain 61 16.1 59 15 93 93 NE 7 11 29.85 1011 2 2 0.06 1.52
11:39 am 11:39 Cloudy with Rain 61 16.1 59 15 93 93 NNE 8 13 29.85 1011 2 3 0.24 6.10
11:51 am 11:51 Cloudy with Rain 61 16 59 15 94 94 NE 8 13 29.86 1011 2 3 0.30 7.62
11:53 am 11:53 Cloudy with Rain 61 16.1 59 15 93 93 NE 9 15 29.88 1012 2 3 0.30 7.62
12:03 pm 12:03 Cloudy with Rain 61 16.1 59 15 93 93 NNE 8 13 29.85 1011 2 3 0.05 1.27
12:21 pm 12:21 Cloudy with Rain 61 16.1 59 15 93 93 N 8 13 29.84 1010 3 4 0.12 3.05
12:37 pm 12:37 Cloudy with Rain 61 16.1 59 15 93 93 NNE 9 15 29.83 1010 3 5 0.15 3.81
12:53 pm 12:53 Cloudy with Rain 61 16.1 59 15 93 93 N 10 17 29.85 1011 3 5 0.19 4.83
1:09 pm 13:09 Cloudy with Light Rain 61 16.1 59 15 93 93 NNE 14 22 29.83 1010 4 6 0.02 0.51
1:22 pm 13:22 Cloudy with Rain 61 16.1 59 15 93 93 NE 12 19 29.83 1010 2 3 0.06 1.52
1:29 pm 13:29 Cloudy with Heavy Rain 61 16.1 59 15 93 93 NNE 14 22 29.83 1010 2 3 0.09 2.29
1:35 pm 13:35 Cloudy with Rain 61 16.1 59 15 93 93 NNE 14 22 29.83 1010 3 4 0.12 3.05
1:43 pm 13:43 Cloudy with Rain 62 16.7 59 15 90 90 NNE 14 22 29.82 1010 3 5 0.13 3.30
1:50 pm 13:50 Cloudy with Rain 61 16 59 15 94 94 NNE 14 22 29.82 1010 3 4 0.15 3.81
1:53 pm 13:53 Cloudy with Rain 61 16.1 59 15 93 93 NNE 14 22 29.84 1011 3 4 0.16 4.06
2:10 pm 14:10 Cloudy with Rain 61 16.1 59 15 93 93 NNE 16 26 29.82 1010 3 4 0.05 1.27
2:20 pm 14:20 Cloudy with Rain 61 16.1 59 15 93 93 NNE 16 26 29.81 1009 3 5 0.08 2.03
2:31 pm 14:31 Cloudy with Light Rain 61 16.1 59 15 93 93 NNE 16 26 29.81 1009 4 6 0.11 2.79
2:53 pm 14:53 Cloudy with Light Rain 61 16.1 59 15 93 93 NNE 16 26 29.82 1010 5 8 0.14 3.56
3:41 pm 15:41 Cloudy with Rain 61 16.1 58 14.4 90 90 N 16 26 29.79 1009 4 6 0.10 2.54
3:49 pm 15:49 Cloudy with Light Rain 61 16 57 14 88 88 N 14 22 29.79 1009 5 8 0.11 2.79
3:53 pm 15:53 Cloudy with Light Rain 61 16.1 58 14.4 90 90 N 14 22 29.81 1010 5 8 0.12 3.05
4:24 pm 16:24 Cloudy with Rain 61 16.1 58 14.4 90 90 NNE 14 22 29.79 1009 3 4 0.07 1.78
4:53 pm 16:53 Cloudy with Rain 61 16.1 59 15 93 93 NNE 15 24 29.80 1009 2 3 0.18 4.57
5:00 pm 17:00 Cloudy with Rain 61 16.1 59 15 93 93 NNE 15 24 29.77 1008 2 3 0.02 0.51
5:26 pm 17:26 Cloudy with Rain 61 16.1 58 14.4 90 90 NNE 15 24 29.77 1008 2 3 0.12 3.05
5:36 pm 17:36 Cloudy with Light Rain 61 16.1 58 14.4 90 90 N 13 20 29.77 1008 5 8 0.14 3.56
5:53 pm 17:53 Cloudy with Light Rain 61 16.1 58 14.4 90 90 NNE 14 22 29.79 1009 7 11 0.15 3.81
6:32 pm 18:32 Cloudy with Light Rain 61 16.1 58 14.4 90 90 NNE 14 22 29.77 1008 4 6 0.03 0.76
6:53 pm 18:53 Cloudy with Light Rain 61 16.1 58 14.4 90 90 NNE 12 19 29.79 1009 6 10 0.05 1.27
7:53 pm 19:53 Cloudy 61 16.1 58 14.4 90 90 N 10 17 29.80 1009 10 16 0.00 0.00
8:29 pm 20:29 Cloudy 61 16.1 58 14.4 90 90 NNW 9 15 29.78 1008 10 16 0.00 0.00
8:53 pm 20:53 Cloudy 61 16.1 58 14.4 90 90 N 8 13 29.81 1009 10 16 0.00 0.00
9:02 pm 21:02 Cloudy 61 16.1 58 14.4 90 90 N 9 15 29.79 1009 10 16 0.00 0.00
9:53 pm 21:53 Cloudy 61 16.1 58 14.4 90 90 NW 10 17 29.83 1010 10 16 0.00 0.00
10:23 pm 22:23 Cloudy with Light Rain 61 16.1 58 14.4 90 90 NW 7 11 29.81 1009 5 8 0.01 0.25
10:53 pm 22:53 Cloudy with Light Rain 61 16.1 58 14.4 90 90 NNW 8 13 29.85 1011 8 13 0.02 0.51
11:27 pm 23:27 Mostly Cloudy 61 16.1 58 14.4 90 90 NW 10 17 29.82 1010 10 16 0.00 0.00
11:35 pm 23:35 Mostly Cloudy 60 15.6 58 14.4 93 93 NW 10 17 29.82 1010 10 16 0.00 0.00
11:53 pm 23:53 Mostly Cloudy 61 16.1 58 14.4 90 90 NNW 10 17 29.84 1010 10 16 0.00 0.00

Powered by AerisWeather